This is the latest recevied weather packets stored in our database for station/object CA3EVY-3. If no packets are shown the sender has not sent any weather packets the latest 10 day(s).
| Time | Temp. | Humidity | Pressure | Rain* | Wind** | Luminosity | Snow |
|---|---|---|---|---|---|---|---|
| 1777323604 | 17.78° C | 35% | 919.5 hPa | - | - | - | - |
| 1777322703 | 17.78° C | 35% | 919.6 hPa | - | - | - | - |
| 1777321804 | 18.33° C | 32% | 919.6 hPa | - | - | - | - |
| 1777320904 | 18.33° C | 32% | 919.7 hPa | - | - | - | - |
| 1777320003 | 18.89° C | 31% | 919.7 hPa | - | - | - | - |
| 1777319104 | 18.89° C | 31% | 919.6 hPa | - | - | - | - |
| 1777318203 | 18.89° C | 27% | 919.7 hPa | - | - | - | - |
| 1777317304 | 19.44° C | 27% | 919.9 hPa | - | - | - | - |
| 1777316404 | 19.44° C | 27% | 919.8 hPa | - | - | - | - |
| 1777315503 | 20° C | 27% | 919.7 hPa | - | - | - | - |
| 1777314604 | 20.56° C | 29% | 919.8 hPa | - | - | - | - |
| 1777313703 | 20.56° C | 29% | 919.8 hPa | - | - | - | - |
| 1777312804 | 20.56° C | 33% | 919.9 hPa | - | - | - | - |
| 1777311904 | 19.44° C | 33% | 920 hPa | - | - | - | - |
| 1777311004 | 18.89° C | 33% | 919.9 hPa | - | - | - | - |
| 1777310103 | 18.89° C | 33% | 920.1 hPa | - | - | - | - |
| 1777309204 | 18.89° C | 31% | 920.1 hPa | - | - | - | - |
| 1777308304 | 18.89° C | 31% | 920 hPa | - | - | - | - |
| 1777307403 | 18.89° C | 31% | 920 hPa | - | - | - | - |
| 1777306504 | 18.89° C | 31% | 920 hPa | - | - | - | - |
| 1777305604 | 17.78° C | 34% | 920.2 hPa | - | - | - | - |
| 1777304703 | 17.22° C | 34% | 920.3 hPa | - | - | - | - |
| 1777303804 | 17.22° C | 34% | 920.3 hPa | - | - | - | - |
| 1777302904 | 16.67° C | 34% | 920.2 hPa | - | - | - | - |
| 1777302004 | 16.11° C | 34% | 920.1 hPa | - | - | - | - |
* Rain since midnight (hover to see other rain measurements)
** Current wind speed in m/s (hover to see current wind gust speed)